Waarnemingen

Advertentie
Mijn weer
Kenley, Groot Brittannië (3781): temperatuur & dauwpunt: 26.03.2020 18:00:00 - 01.04.2020 18:00:00 (BST)Kenley, Groot Brittannië (3781): temperatuur -20cm & temperatuur -100cm: 26.03.2020 18:00:00 - 01.04.2020 18:00:00 (BST)Kenley, Groot Brittannië (3781): windsnelheid & windstoten: 26.03.2020 18:00:00 - 01.04.2020 18:00:00 (BST)Kenley, Groot Brittannië (3781): windrichting: 26.03.2020 18:00:00 - 01.04.2020 18:00:00 (BST)Kenley, Groot Brittannië (3781): luchtdruk: 26.03.2020 18:00:00 - 01.04.2020 18:00:00 (BST)Kenley, Groot Brittannië (3781): zicht: 26.03.2020 18:00:00 - 01.04.2020 18:00:00 (BST)Kenley, Groot Brittannië (3781): neerslag: 26.03.2020 18:00:00 - 01.04.2020 18:00:00 (BST)
Datum & Tijd tt [°C] td [°C] tt -20cm [°C] tt -100cm [°C] ff [km/u] ff [kn] fx [km/u] fx [kn] dd ppp [hPa] vv [km] rr [mm]
01.04.2020 18:00:00 7,0 -1,0 - - 9 5 - - NW 1020,8 45 -
01.04.2020 17:00:00 6,8 -0,7 - - 11 6 - - WNW 1021,1 50 0,0
01.04.2020 16:00:00 7,2 -0,6 - - 13 7 - - NW 1021,7 50 0,0
01.04.2020 15:00:00 7,4 -0,3 - - 11 6 - - NNW 1022,2 45 0,0
01.04.2020 14:00:00 7,7 -0,1 - - 11 6 - - NNW 1022,7 45 0,0
01.04.2020 13:00:00 8,6 -1,6 - - 9 5 - - N 1023,1 30 0,0
01.04.2020 12:00:00 8,1 -1,4 - - 9 5 - - NO 1023,8 50 0,0
01.04.2020 11:00:00 7,0 -1,2 - - 8 4 - - O 1024,6 40 0,0
01.04.2020 10:00:00 5,3 -0,3 6,0 7,7 5 3 - - ONO 1025,3 40 0,0
01.04.2020 09:00:00 2,9 1,1 - - 5 3 - - NNO 1025,8 35 0,0
01.04.2020 08:00:00 -0,6 -0,8 - - 0 0 - - N 1026,3 8 0,0
01.04.2020 07:00:00 -2,4 -2,8 - - 0 0 - - N 1026,4 3,2 0,0
01.04.2020 06:00:00 -2,3 -2,7 - - 0 0 - - N 1026,5 9 0,0
01.04.2020 05:00:00 -2,1 -2,5 - - 2 1 - - NNO 1026,7 10 0,0
01.04.2020 04:00:00 -2,3 -2,9 - - 2 1 - - NNO 1027,2 5 0,0
01.04.2020 03:00:00 -1,0 -1,5 - - 2 1 - - O 1027,9 14 0,0
01.04.2020 02:00:00 -1,1 -2,4 - - 2 1 - - ONO 1028,5 17 0,0
01.04.2020 01:00:00 0,1 -1,6 - - 5 3 - - NO 1028,9 26 0,0
01.04.2020 00:00:00 -0,5 -2,7 - - 4 2 - - NO 1029,5 30 0,0
31.03.2020 23:00:00 0,8 -2,2 - - 5 3 - - NO 1029,6 50 0,0
31.03.2020 22:00:00 2,5 -1,9 - - 5 3 - - O 1029,7 40 0,0
31.03.2020 21:00:00 3,5 -2,6 - - 8 4 - - O 1029,8 45 0,0
31.03.2020 20:00:00 4,3 -2,0 - - 8 4 - - O 1029,8 50 0,0
31.03.2020 19:00:00 5,9 -0,8 - - 11 6 - - ONO 1030,0 40 0,0
31.03.2020 18:00:00 7,1 0,2 - - 16 9 - - ONO 1030,0 30 0,0
31.03.2020 17:00:00 7,7 0,6 - - 15 8 - - ONO 1030,1 50 0,0
31.03.2020 16:00:00 8,0 0,5 - - 13 7 - - NO 1030,3 40 0,0
31.03.2020 15:00:00 8,8 0,7 - - 16 9 - - ONO 1030,7 26 0,0
31.03.2020 14:00:00 7,5 0,9 - - 16 9 - - NO 1031,3 23 0,0
31.03.2020 13:00:00 8,6 -1,3 - - 18 10 - - O 1031,6 30 0,0
31.03.2020 12:00:00 6,9 0,3 - - 16 9 - - O 1032,0 30 0,0
31.03.2020 11:00:00 8,3 2,8 - - 15 8 - - O 1032,0 24 0,0
31.03.2020 10:00:00 5,2 2,2 6,4 7,7 16 9 - - ONO 1032,6 35 0,0
31.03.2020 09:00:00 3,7 2,0 - - 11 6 - - NO 1032,4 29 0,0
31.03.2020 08:00:00 2,5 1,0 - - 11 6 - - NO 1032,2 22 0,0
31.03.2020 07:00:00 1,7 0,3 - - 11 6 - - NNO 1031,8 27 0,0
31.03.2020 06:00:00 2,2 0,4 - - 15 8 - - NNO 1031,4 25 0,0
31.03.2020 05:00:00 2,4 0,4 - - 13 7 - - NO 1031,4 25 0,0
31.03.2020 04:00:00 2,6 0,9 - - 15 8 - - NO 1031,3 27 0,0
31.03.2020 03:00:00 2,7 1,2 - - 18 10 - - NO 1031,4 23 0,0
31.03.2020 02:00:00 3,6 1,9 - - 16 9 - - NO 1031,5 27 0,0
31.03.2020 01:00:00 3,6 1,8 - - 15 8 - - NO 1031,6 30 0,0
31.03.2020 00:00:00 3,7 1,7 - - 18 10 - - NNO 1031,6 35 0,0
30.03.2020 23:00:00 5,1 2,4 - - 15 8 - - NO 1031,6 40 0,0
30.03.2020 22:00:00 5,5 2,5 - - 16 9 - - NNO 1031,5 40 0,0
30.03.2020 21:00:00 5,6 2,5 - - 18 10 - - NNO 1031,5 45 0,0
30.03.2020 20:00:00 6,2 2,5 - - 22 12 - - NNO 1031,0 40 0,0
30.03.2020 19:00:00 5,9 3,2 - - 9 5 - - NNO 1031,1 45 0,0
30.03.2020 18:00:00 6,0 3,0 - - 11 6 - - ONO 1031,2 40 0,0
30.03.2020 17:00:00 5,9 3,9 - - 8 4 - - ONO 1031,4 40 0,6
30.03.2020 16:00:00 5,9 3,8 - - 13 7 - - NO 1031,9 7 0,6
30.03.2020 15:00:00 6,8 2,5 - - 13 7 - - N 1032,1 40 0,0
30.03.2020 14:00:00 6,5 1,9 - - 16 9 - - NNO 1032,8 50 0,0
30.03.2020 13:00:00 5,6 2,4 - - 18 10 - - NNO 1033,7 50 0,0
30.03.2020 12:00:00 4,5 1,6 - - 16 9 - - NNO 1034,3 28 0,0
30.03.2020 11:00:00 3,6 0,8 - - 11 6 - - NNO 1035,0 35 0,0
30.03.2020 10:00:00 4,0 -0,6 6,2 7,9 11 6 - - N 1035,4 40 0,0
30.03.2020 09:00:00 3,1 -0,9 - - 13 7 - - N 1035,7 50 0,0
30.03.2020 08:00:00 2,2 -0,6 - - 9 5 - - N 1036,1 35 0,0
30.03.2020 07:00:00 1,5 -0,9 - - 15 8 - - N 1036,4 40 0,0
30.03.2020 06:00:00 0,9 -0,8 - - 15 8 - - N 1036,5 35 0,0
30.03.2020 05:00:00 1,4 -1,2 - - 13 7 - - NNO 1036,8 40 0,0
30.03.2020 04:00:00 1,7 -1,1 - - 15 8 - - NNO 1037,2 40 0,0
30.03.2020 03:00:00 1,6 -1,9 - - 13 7 - - NNO 1037,8 50 0,0
30.03.2020 02:00:00 1,5 -4,3 - - 15 8 - - NNO 1038,4 50 0,0
30.03.2020 01:00:00 0,8 -4,4 - - 15 8 - - NNO 1038,8 50 0,0
30.03.2020 00:00:00 0,8 -4,7 - - 15 8 - - NNO 1039,1 45 0,0
29.03.2020 23:00:00 1,7 -4,7 - - 21 11 - - NO 1039,3 50 0,0
29.03.2020 22:00:00 2,0 -5,0 - - 22 12 - - NO 1039,1 50 0,0
29.03.2020 21:00:00 2,8 -5,3 - - 22 12 46 25 NO 1039,1 50 0,0
29.03.2020 20:00:00 3,1 -6,4 - - 29 16 52 28 NO 1038,6 50 0,0
29.03.2020 19:00:00 4,1 -6,6 - - 29 16 55 30 NNO 1038,0 50 0,0
29.03.2020 18:00:00 4,9 -5,4 - - 28 15 52 28 NO 1037,6 45 0,0
29.03.2020 17:00:00 4,8 -1,8 - - 21 11 59 32 NO 1037,6 35 0,0
29.03.2020 16:00:00 4,9 0,0 - - 21 11 59 32 NO 1037,2 40 0,0
29.03.2020 15:00:00 2,4 0,6 - - 28 15 61 33 NO 1038,2 30 0,6
29.03.2020 14:00:00 5,2 0,4 - - 29 16 65 35 NNO 1037,3 45 0,0
29.03.2020 13:00:00 3,3 1,2 - - 29 16 55 30 NO 1037,7 35 0,0
29.03.2020 12:00:00 5,5 -2,4 - - 41 22 65 35 NNO 1037,1 30 0,0
29.03.2020 11:00:00 4,5 -3,5 - - 35 19 65 35 NO 1036,7 21 0,0
29.03.2020 10:00:00 4,6 -4,1 6,7 7,9 29 16 59 32 NNO 1036,4 27 0,0
29.03.2020 09:00:00 3,7 -3,1 - - 29 16 55 30 NNO 1035,9 40 0,0
29.03.2020 08:00:00 2,5 -2,7 - - 34 18 46 25 NNO 1035,7 30 0,0
29.03.2020 07:00:00 2,4 -2,9 - - 24 13 57 31 NNO 1035,2 30 0,0
29.03.2020 06:00:00 2,7 -2,7 - - 24 13 46 25 NNO 1035,0 35 0,0
29.03.2020 05:00:00 2,8 -2,8 - - 26 14 - - NNO 1034,7 40 0,0
29.03.2020 04:00:00 2,1 -1,5 - - 22 12 - - NNO 1034,7 24 0,0
29.03.2020 03:00:00 3,0 -0,9 - - 24 13 - - NNO 1034,5 30 0,0
29.03.2020 02:00:00 2,8 -0,5 - - 22 12 46 25 NO 1034,5 45 0,0
29.03.2020 01:00:00 3,6 0,2 - - 21 11 48 26 NNO 1034,0 35 0,0
29.03.2020 00:00:00 4,1 0,3 - - 28 15 48 26 NO 1033,5 50 0,0
28.03.2020 23:00:00 4,2 -0,3 - - 24 13 46 25 NNO 1032,9 35 0,0
28.03.2020 22:00:00 4,2 -0,9 - - 26 14 48 26 NNO 1032,7 40 0,0
28.03.2020 21:00:00 5,3 0,2 - - 26 14 59 32 NNO 1032,0 40 0,0
28.03.2020 20:00:00 6,7 0,0 - - 28 15 52 28 NO 1030,9 35 0,0
28.03.2020 19:00:00 7,5 -1,4 - - 29 16 52 28 NNO 1030,0 45 0,0
28.03.2020 18:00:00 8,0 0,5 - - 24 13 48 26 NO 1029,4 35 0,0
28.03.2020 17:00:00 8,2 1,2 - - 24 13 52 28 NO 1029,1 45 0,0
28.03.2020 16:00:00 8,5 2,0 - - 24 13 52 28 NO 1028,8 30 0,0
28.03.2020 15:00:00 7,7 2,5 - - 28 15 50 27 NO 1028,8 30 0,0
28.03.2020 14:00:00 9,5 2,9 - - 29 16 54 29 NNO 1028,5 25 0,0
28.03.2020 13:00:00 10,1 1,3 - - 24 13 54 29 NO 1028,1 27 0,0
28.03.2020 12:00:00 9,5 1,4 - - 28 15 54 29 NO 1027,8 30 0,0
28.03.2020 11:00:00 8,4 1,6 - - 26 14 - - NO 1027,5 22 0,0
28.03.2020 10:00:00 7,1 1,7 6,7 7,9 26 14 - - NO 1027,1 21 0,0
28.03.2020 09:00:00 5,3 2,0 - - 24 13 - - NO 1026,5 12 0,0
28.03.2020 08:00:00 3,7 1,5 - - 21 11 - - NNO 1026,2 10 0,0
28.03.2020 07:00:00 3,0 0,6 - - 16 9 - - NNO 1025,8 14 0,0
28.03.2020 06:00:00 3,1 0,5 - - 18 10 - - NNO 1025,4 15 0,0
28.03.2020 05:00:00 3,4 0,8 - - 18 10 - - NNO 1025,2 16 0,0
28.03.2020 04:00:00 3,5 0,8 - - 21 11 - - NNO 1024,9 16 0,0
28.03.2020 03:00:00 3,5 0,7 - - 16 9 - - NNO 1025,0 16 0,0
28.03.2020 02:00:00 3,8 0,7 - - 21 11 - - NO 1025,0 16 0,0
28.03.2020 01:00:00 4,0 0,6 - - 21 11 - - NNO 1024,9 15 0,0
28.03.2020 00:00:00 4,5 -0,1 - - 16 9 - - NO 1024,9 19 0,0
27.03.2020 23:00:00 5,2 -0,9 - - 22 12 - - NNO 1024,6 21 0,0
27.03.2020 22:00:00 6,3 -1,6 - - 24 13 - - NO 1024,2 40 0,0
27.03.2020 21:00:00 7,5 -2,1 - - 24 13 - - NO 1023,7 35 0,0
27.03.2020 20:00:00 8,5 -1,6 - - 21 11 - - NO 1023,1 35 0,0
27.03.2020 19:00:00 9,8 -1,3 - - 21 11 - - NO 1022,3 40 0,0
27.03.2020 18:00:00 11,0 -1,0 - - 22 12 48 26 ONO 1021,8 35 0,0
27.03.2020 17:00:00 11,4 -1,1 - - 24 13 - - NO 1021,6 24 0,0
27.03.2020 16:00:00 11,7 -0,7 - - 24 13 - - NO 1021,8 30 0,0
27.03.2020 15:00:00 11,7 -1,5 - - 22 12 - - NO 1022,3 30 0,0
27.03.2020 14:00:00 11,1 -2,1 - - 24 13 - - NO 1022,8 50 0,0
27.03.2020 13:00:00 11,0 0,0 - - 18 10 - - ONO 1023,2 21 0,0
27.03.2020 12:00:00 10,2 -0,4 - - 18 10 - - ONO 1023,4 21 0,0
27.03.2020 11:00:00 8,5 1,9 - - 15 8 - - NO 1023,6 13 0,0
27.03.2020 10:00:00 6,1 2,2 6,7 8,0 11 6 - - NO 1023,8 11 0,0
27.03.2020 09:00:00 3,3 2,4 - - 5 3 - - NO 1023,8 7 0,0
27.03.2020 08:00:00 1,1 0,9 - - 11 6 - - NNO 1023,8 3,6 0,0
27.03.2020 07:00:00 -0,9 -1,1 - - 5 3 - - NNO 1023,9 2,4 0,0
27.03.2020 06:00:00 -1,0 -1,3 - - 5 3 - - N 1023,8 2,5 0,0
27.03.2020 05:00:00 -0,9 -1,3 - - 8 4 - - N 1023,7 5 0,0
27.03.2020 04:00:00 -1,4 -2,4 - - 5 3 - - NNO 1023,6 5 0,0
27.03.2020 03:00:00 -1,0 -2,6 - - 5 3 - - N 1023,9 7 0,0
27.03.2020 02:00:00 1,2 -1,3 - - 8 4 - - NO 1023,8 12 0,0
27.03.2020 01:00:00 2,0 -1,3 - - 8 4 - - NO 1023,8 14 0,0
27.03.2020 00:00:00 2,8 -1,4 - - 11 6 - - NO 1023,8 16 0,0
26.03.2020 23:00:00 3,4 -1,6 - - 11 6 - - NO 1023,6 18 0,0
26.03.2020 22:00:00 4,0 -2,6 - - 9 5 - - ONO 1023,6 21 0,0
26.03.2020 21:00:00 4,6 -3,4 - - 13 7 - - O 1023,5 22 0,0
26.03.2020 20:00:00 5,6 -7,1 - - 13 7 - - ONO 1022,8 45 0,0
26.03.2020 19:00:00 7,2 -7,3 - - 15 8 - - ONO 1022,3 45 0,0
26.03.2020 18:00:00 - - - - - - - - - - - -

tt = temperatuur
td = dauwpunt
tt -20cm = temperatuur -20cm
tt -100cm = temperatuur -100cm
ff = windsnelheid
fx = windstoten
dd = windrichting
ppp = luchtdruk
vv = zicht
rr = neerslag

Weerstations in de omgeving